Location: Barcelona
(41.3829°N, 2.1774°E)
Time: 21:11:38
(UTC+00:00)

ISS - Pass Details

Date: 13 July 2025
Orbit: 413 x 417 km, 51.6° (Epoch: 13 July)

Event Time Altitude Azimuth Distance (km) Brightness Sun altitude
Rises 23:58:19 0° 309° (NW) 2,356 0.6 -26.8°
Reaches altitude 10° 00:00:42 10° 325° (NW) 1,492 -0.3 -26.8°
Enters shadow 00:03:20 23° 17° (NNE) 927 -1.4 -26.8°
